TimeEDT,TemperatureF,Dew PointF,Humidity,Sea Level PressureIn,VisibilityMPH,Wind Direction,Wind SpeedMPH,Gust SpeedMPH,PrecipitationIn,Events,Conditions,WindDirDegrees,DateUTC
12:15 AM,51.8,51.8,100,30.11,7.0,Calm,Calm,-,N/A,,Clear,0,2013-09-24 04:15:00
12:35 AM,51.8,51.8,100,30.10,10.0,Calm,Calm,-,N/A,,Clear,0,2013-09-24 04:35:00
12:55 AM,51.8,51.8,100,30.11,10.0,Calm,Calm,-,N/A,,Clear,0,2013-09-24 04:55:00
1:15 AM,51.8,51.8,100,30.10,10.0,Calm,Calm,-,N/A,,Clear,0,2013-09-24 05:15:00
1:35 AM,51.8,51.8,100,30.10,5.0,Calm,Calm,-,N/A,,Clear,0,2013-09-24 05:35:00
1:55 AM,51.8,51.8,100,30.11,1.8,Calm,Calm,-,N/A,,Mist,0,2013-09-24 05:55:00
2:15 AM,51.8,51.8,100,30.11,10.0,Calm,Calm,-,N/A,,Clear,0,2013-09-24 06:15:00
2:35 AM,51.8,51.8,100,30.11,4.0,Calm,Calm,-,N/A,,Clear,0,2013-09-24 06:35:00
2:55 AM,51.8,51.8,100,30.10,7.0,Calm,Calm,-,N/A,,Clear,0,2013-09-24 06:55:00
3:35 AM,53.6,53.6,100,30.10,10.0,South,4.6,-,N/A,,Clear,190,2013-09-24 07:35:00
3:55 AM,53.6,53.6,100,30.10,10.0,SSW,4.6,-,N/A,,Clear,200,2013-09-24 07:55:00
4:15 AM,55.4,55.4,100,30.10,10.0,South,4.6,-,N/A,,Clear,190,2013-09-24 08:15:00
4:35 AM,55.4,55.4,100,30.10,10.0,South,3.5,-,N/A,,Clear,190,2013-09-24 08:35:00
4:55 AM,55.4,55.4,100,30.10,10.0,South,3.5,-,N/A,,Clear,190,2013-09-24 08:55:00
5:35 AM,53.6,53.6,100,30.11,10.0,South,4.6,-,N/A,,Clear,190,2013-09-24 09:35:00
5:55 AM,51.8,51.8,100,30.11,10.0,SSW,5.8,-,N/A,,Mostly Cloudy,210,2013-09-24 09:55:00
6:15 AM,53.6,53.6,100,30.11,10.0,South,4.6,-,N/A,,Mostly Cloudy,190,2013-09-24 10:15:00
6:35 AM,53.6,53.6,100,30.11,10.0,South,3.5,-,N/A,,Mostly Cloudy,190,2013-09-24 10:35:00
6:55 AM,55.4,55.4,100,30.12,10.0,SSW,3.5,-,N/A,,Overcast,210,2013-09-24 10:55:00
7:15 AM,53.6,53.6,100,30.12,10.0,SSW,3.5,-,N/A,,Overcast,210,2013-09-24 11:15:00
7:35 AM,53.6,53.6,100,30.12,7.0,Calm,Calm,-,N/A,,Overcast,0,2013-09-24 11:35:00
7:55 AM,53.6,53.6,100,30.12,7.0,Calm,Calm,-,N/A,,Mostly Cloudy,0,2013-09-24 11:55:00
8:15 AM,55.4,55.4,100,30.13,10.0,Calm,Calm,-,N/A,,Mostly Cloudy,0,2013-09-24 12:15:00
8:35 AM,55.4,55.4,100,30.13,10.0,Calm,Calm,-,N/A,,Mostly Cloudy,0,2013-09-24 12:35:00
8:55 AM,59.0,59.0,100,30.13,10.0,SSW,3.5,-,N/A,,Overcast,210,2013-09-24 12:55:00
9:15 AM,59.0,59.0,100,30.12,10.0,Calm,Calm,-,N/A,,Overcast,0,2013-09-24 13:15:00
9:35 AM,60.8,60.8,100,30.12,10.0,West,3.5,-,N/A,,Mostly Cloudy,270,2013-09-24 13:35:00
9:55 AM,62.6,62.6,100,30.12,10.0,Calm,Calm,-,N/A,,Mostly Cloudy,0,2013-09-24 13:55:00
10:15 AM,64.4,62.6,94,30.12,10.0,Calm,Calm,-,N/A,,Mostly Cloudy,0,2013-09-24 14:15:00
10:35 AM,68.0,59.0,73,30.13,10.0,WSW,4.6,-,N/A,,Mostly Cloudy,250,2013-09-24 14:35:00
10:55 AM,68.0,55.4,64,30.13,10.0,WSW,5.8,-,N/A,,Mostly Cloudy,240,2013-09-24 14:55:00
11:15 AM,69.8,55.4,60,30.13,10.0,WNW,3.5,-,N/A,,Mostly Cloudy,300,2013-09-24 15:15:00
11:35 AM,68.0,55.4,64,30.12,10.0,NNW,5.8,-,N/A,,Mostly Cloudy,340,2013-09-24 15:35:00
11:55 AM,71.6,57.2,60,30.11,10.0,NW,4.6,-,N/A,,Overcast,310,2013-09-24 15:55:00
12:15 PM,69.8,55.4,60,30.11,10.0,NW,4.6,-,N/A,,Overcast,310,2013-09-24 16:15:00
12:35 PM,69.8,55.4,60,30.10,10.0,NNE,5.8,-,N/A,,Overcast,20,2013-09-24 16:35:00
12:55 PM,71.6,55.4,57,30.10,10.0,NNE,3.5,-,N/A,,Overcast,20,2013-09-24 16:55:00
1:15 PM,73.4,55.4,53,30.09,10.0,West,3.5,-,N/A,,Overcast,280,2013-09-24 17:15:00
1:55 PM,71.6,55.4,57,30.07,10.0,North,3.5,-,N/A,,Mostly Cloudy,10,2013-09-24 17:55:00
2:15 PM,73.4,57.2,57,30.07,10.0,NE,3.5,-,N/A,,Mostly Cloudy,40,2013-09-24 18:15:00
2:35 PM,73.4,57.2,57,30.06,10.0,NW,3.5,-,N/A,,Mostly Cloudy,310,2013-09-24 18:35:00
2:55 PM,71.6,57.2,60,30.06,10.0,ENE,3.5,-,N/A,,Overcast,60,2013-09-24 18:55:00
3:15 PM,71.6,59.0,64,30.05,10.0,North,4.6,-,N/A,,Overcast,360,2013-09-24 19:15:00
3:35 PM,71.6,57.2,60,30.04,10.0,NE,4.6,-,N/A,,Mostly Cloudy,40,2013-09-24 19:35:00
3:55 PM,73.4,59.0,61,30.03,10.0,NNE,3.5,-,N/A,,Scattered Clouds,30,2013-09-24 19:55:00
4:15 PM,73.4,57.2,57,30.03,10.0,ENE,3.5,-,N/A,,Mostly Cloudy,70,2013-09-24 20:15:00
4:35 PM,71.6,59.0,64,30.03,10.0,Calm,Calm,-,N/A,,Overcast,0,2013-09-24 20:35:00
4:55 PM,71.6,57.2,60,30.02,10.0,SSE,3.5,-,N/A,,Scattered Clouds,150,2013-09-24 20:55:00
5:15 PM,73.4,57.2,57,30.02,10.0,ENE,3.5,-,N/A,,Clear,70,2013-09-24 21:15:00
5:35 PM,71.6,57.2,60,30.01,10.0,Calm,Calm,-,N/A,,Scattered Clouds,0,2013-09-24 21:35:00
5:55 PM,71.6,59.0,64,30.01,10.0,Calm,Calm,-,N/A,,Clear,0,2013-09-24 21:55:00
6:15 PM,69.8,57.2,64,30.01,10.0,Calm,Calm,-,N/A,,Clear,0,2013-09-24 22:15:00
6:35 PM,69.8,59.0,68,30.00,10.0,South,3.5,-,N/A,,Clear,180,2013-09-24 22:35:00
6:55 PM,68.0,57.2,68,30.00,10.0,Calm,Calm,-,N/A,,Clear,0,2013-09-24 22:55:00
7:15 PM,66.2,57.2,73,30.01,10.0,Calm,Calm,-,N/A,,Clear,0,2013-09-24 23:15:00
7:35 PM,64.4,55.4,73,30.00,10.0,Calm,Calm,-,N/A,,Clear,0,2013-09-24 23:35:00
7:55 PM,62.6,55.4,77,30.00,10.0,Calm,Calm,-,N/A,,Clear,0,2013-09-24 23:55:00
8:15 PM,62.6,59.0,88,30.00,10.0,Calm,Calm,-,N/A,,Clear,0,2013-09-25 00:15:00
8:35 PM,60.8,57.2,88,30.01,10.0,Calm,Calm,-,N/A,,Clear,0,2013-09-25 00:35:00
8:55 PM,60.8,59.0,94,30.02,10.0,Calm,Calm,-,N/A,,Clear,0,2013-09-25 00:55:00
9:15 PM,60.8,59.0,94,30.01,10.0,Calm,Calm,-,N/A,,Clear,0,2013-09-25 01:15:00
9:35 PM,60.8,57.2,88,30.02,10.0,Calm,Calm,-,N/A,,Clear,0,2013-09-25 01:35:00
9:55 PM,60.8,55.4,82,30.02,10.0,Calm,Calm,-,N/A,,Clear,0,2013-09-25 01:55:00
10:15 PM,60.8,60.8,100,30.02,10.0,Calm,Calm,-,N/A,,Clear,0,2013-09-25 02:15:00
10:35 PM,62.6,57.2,82,30.02,10.0,NE,3.5,-,N/A,,Scattered Clouds,40,2013-09-25 02:35:00
10:55 PM,62.6,57.2,82,30.01,10.0,NE,3.5,-,N/A,,Scattered Clouds,40,2013-09-25 02:55:00
11:15 PM,62.6,57.2,82,30.01,10.0,ENE,3.5,-,N/A,,Scattered Clouds,60,2013-09-25 03:15:00
11:35 PM,62.6,57.2,82,30.00,10.0,ENE,3.5,-,N/A,,Scattered Clouds,60,2013-09-25 03:35:00
11:55 PM,62.6,57.2,82,30.00,10.0,ENE,3.5,-,N/A,,Clear,60,2013-09-25 03:55:00